This demonstration page uses our WeatherBlox Daily Observations layout. Learn more.

Hourly Observations for October 18, 2020

Temp ( °F °C ) Dew Point ( °F °C ) Humidity (%) Winds ( mph kmh ) Pressure ( in mb ) Visibility ( mi km ) Precip ( " mm )
12:54 am 00:54 Cloudy with Light Rain 42 5.6 36 2.2 79 79 N 20 31 30.11 1020 10 16.0934 0.001 0.001
1:10 am 01:10 Cloudy with Rain 41 5 36 2.2 82 82 N 23 37 30.13 1020 8 12.87472 0.01 0.254
1:22 am 01:22 Cloudy with Light Rain 41 5 36 2.2 82 82 N 17 28 30.16 1021 10 16.0934 0.01 0.254
1:54 am 01:54 Cloudy 41 5 36 2.2 82 82 N 17 28 30.13 1020 10 16.0934 0.01 0.254
2:54 am 02:54 Cloudy 38 3.3 33 0.6 83 83 N 20 31 30.18 1022 10 16.0934 0.001 0.001
3:47 am 03:47 Cloudy 36 2.2 32 0 86 86 N 18 30 30.25 1024 10 16.0934 0 0
3:54 am 03:54 Cloudy 36 2.2 31 -0.6 82 82 N 21 33 30.18 1022 10 16.0934 0 0
4:13 am 04:13 Cloudy 36 2.2 31 -0.6 82 82 N 20 31 30.23 1024 10 16.0934 0 0
4:54 am 04:54 Cloudy 36 2.2 31 -0.6 82 82 N 16 26 30.22 1023 10 16.0934 0 0
5:54 am 05:54 Cloudy 35 1.7 31 -0.6 85 85 N 15 24 30.22 1023 10 16.0934 0.001 0.001
6:26 am 06:26 Cloudy 35 1.7 31 -0.6 85 85 N 15 24 30.3 1026 10 16.0934 0 0
6:54 am 06:54 Cloudy 35 1.7 30 -1.1 82 82 N 12 19 30.27 1025 10 16.0934 0 0
7:54 am 07:54 Cloudy 35 1.7 31 -0.6 85 85 N 10 17 30.28 1026 10 16.0934 0.001 0.001
8:15 am 08:15 Cloudy 35 1.7 31 -0.6 85 85 undefined N/A 30.34 1027 10 16.0934 0 0
8:38 am 08:38 Cloudy 36 2.2 31 -0.6 82 82 N 6 9 30.34 1027 10 16.0934 0 0
8:54 am 08:54 Cloudy 36 2.2 31 -0.6 82 82 N 10 17 30.31 1026 10 16.0934 0 0
9:54 am 09:54 Cloudy 38 3.3 30 -1.1 73 73 N 13 20 30.34 1028 10 16.0934 0 0
10:54 am 10:54 Cloudy 40 4.4 25 -3.9 55 55 N 14 22 30.36 1028 10 16.0934 0 0
11:54 am 11:54 Mostly Cloudy 40 4.4 22 -5.6 49 49 N 16 26 30.37 1028 10 16.0934 0 0
12:54 pm 12:54 Mostly Cloudy 42 5.6 22 -5.6 45 45 N 10 17 30.35 1028 10 16.0934 0 0
1:54 pm 13:54 Sunny 44 6.7 19 -7.2 37 37 N 15 24 30.32 1027 10 16.0934 0 0
2:54 pm 14:54 Sunny 43 6.1 20 -6.7 40 40 N 16 26 30.3 1026 10 16.0934 0 0
3:54 pm 15:54 Sunny 43 6.1 20 -6.7 40 40 N 10 17 30.29 1026 10 16.0934 0 0
4:54 pm 16:54 Sunny 42 5.6 20 -6.7 41 41 N 12 19 30.27 1025 10 16.0934 0 0
5:54 pm 17:54 Partly Cloudy 41 5 22 -5.6 47 47 N 9 15 30.29 1026 10 16.0934 0 0
6:54 pm 18:54 Cloudy 41 5 21 -6.1 45 45 N 9 15 30.33 1027 10 16.0934 0 0
7:54 pm 19:54 Cloudy 40 4.4 23 -5 51 51 N 6 9 30.32 1027 10 16.0934 0 0
8:54 pm 20:54 Cloudy 40 4.4 24 -4.4 53 53 N 5 7 30.32 1027 10 16.0934 0 0
9:54 pm 21:54 Cloudy with Light Snow 35 1.7 29 -1.7 78 78 NNE 10 17 30.32 1027 5 8.0467 0.01 0.254
10:54 pm 22:54 Cloudy 36 2.2 30 -1.1 79 79 NE 9 15 30.32 1027 10 16.0934 0.01 0.254
11:54 pm 23:54 Cloudy 36 2.2 30 -1.1 79 79 ENE 6 9 30.32 1027 10 16.0934 0 0

Powered by AerisWeather